| time (UTC) | temp F | wind direction | speed knots | gust knots | rain 1hr in | rain 24hr in | rain mn in | humidity % | barometer mb |
| 20260502232206 | 59 | 156 | 8.7 | 9.6 | 0.00 | 0.00 | 0.00 | 26 | 1015.0 |
| 20260502232007 | 59 | 155 | 7.8 | 9.6 | 0.00 | 0.00 | 0.00 | 26 | 1015.0 |
| 20260502231609 | 59 | 154 | 8.7 | 9.6 | 0.00 | 0.00 | 0.00 | 26 | 1015.0 |
| 20260502231406 | 59 | 155 | 8.7 | 9.6 | 0.00 | 0.00 | 0.00 | 26 | 1015.0 |
| 20260502231206 | 59 | 155 | 8.7 | 9.6 | 0.00 | 0.00 | 0.00 | 26 | 1015.0 |
| 20260502231007 | 60 | 157 | 7.8 | 9.6 | 0.00 | 0.00 | 0.00 | 26 | 1015.0 |
| 20260502230807 | 59 | 158 | 7.8 | 9.6 | 0.00 | 0.00 | 0.00 | 26 | 1015.0 |
| 20260502230606 | 59 | 158 | 7.8 | 9.6 | 0.00 | 0.00 | 0.00 | 26 | 1015.0 |
| 20260502230406 | 60 | 158 | 7.8 | 9.6 | 0.00 | 0.00 | 0.00 | 26 | 1015.0 |
| 20260502230215 | 60 | 158 | 7.8 | 9.6 | 0.00 | 0.00 | 0.00 | 26 | 1015.0 |
| 20260502230006 | 60 | 156 | 7.8 | 9.6 | 0.00 | 0.00 | 0.00 | 25 | 1015.0 |
| 20260502225607 | 60 | 156 | 7.0 | 9.6 | 0.00 | 0.00 | 0.00 | 26 | 1015.0 |
| 20260502225407 | 60 | 156 | 7.0 | 9.6 | 0.00 | 0.00 | 0.00 | 26 | 1015.0 |
| 20260502225206 | 60 | 156 | 6.1 | 9.6 | 0.00 | 0.00 | 0.00 | 26 | 1015.0 |
| 20260502224807 | 60 | 156 | 7.8 | 9.6 | 0.00 | 0.00 | 0.00 | 25 | 1015.0 |
| 20260502224606 | 60 | 155 | 7.0 | 9.6 | 0.00 | 0.00 | 0.00 | 25 | 1015.0 |
| 20260502224406 | 60 | 154 | 7.8 | 9.6 | 0.00 | 0.00 | 0.00 | 25 | 1015.0 |
| 20260502224007 | 60 | 153 | 7.8 | 9.6 | 0.00 | 0.00 | 0.00 | 25 | 1015.0 |
| 20260502223806 | 60 | 152 | 7.8 | 9.6 | 0.00 | 0.00 | 0.00 | 25 | 1015.0 |
| 20260502223608 | 60 | 150 | 6.1 | 9.6 | 0.00 | 0.00 | 0.00 | 25 | 1015.0 |
| 20260502223408 | 60 | 151 | 7.8 | 10.4 | 0.00 | 0.00 | 0.00 | 25 | 1015.0 |
| 20260502223006 | 61 | 151 | 7.8 | 10.4 | 0.00 | 0.00 | 0.00 | 25 | 1015.0 |
| 20260502222807 | 61 | 150 | 7.8 | 10.4 | 0.00 | 0.00 | 0.00 | 25 | 1015.0 |
| 20260502222607 | 61 | 152 | 7.8 | 10.4 | 0.00 | 0.00 | 0.00 | 25 | 1015.0 |
| 20260502222407 | 61 | 152 | 7.8 | 9.6 | 0.00 | 0.00 | 0.00 | 25 | 1015.0 |
| 20260502222210 | 61 | 152 | 7.8 | 9.6 | 0.00 | 0.00 | 0.00 | 25 | 1015.0 |
| 20260502222007 | 61 | 152 | 7.8 | 9.6 | 0.00 | 0.00 | 0.00 | 25 | 1015.0 |
| 20260502221607 | 61 | 153 | 7.0 | 9.6 | 0.00 | 0.00 | 0.00 | 25 | 1015.0 |
| 20260502221208 | 61 | 153 | 7.0 | 9.6 | 0.00 | 0.00 | 0.00 | 25 | 1015.0 |
| 20260502221006 | 61 | 154 | 7.8 | 9.6 | 0.00 | 0.00 | 0.00 | 25 | 1015.0 |
| 20260502220806 | 62 | 154 | 7.8 | 9.6 | 0.00 | 0.00 | 0.00 | 25 | 1015.0 |
| 20260502220607 | 62 | 154 | 7.0 | 9.6 | 0.00 | 0.00 | 0.00 | 25 | 1015.0 |
| 20260502220206 | 62 | 154 | 7.8 | 9.6 | 0.00 | 0.00 | 0.00 | 25 | 1015.0 |
| 20260502220007 | 62 | 154 | 7.0 | 9.6 | 0.00 | 0.00 | 0.00 | 25 | 1015.0 |
| 20260502215806 | 62 | 154 | 7.8 | 9.6 | 0.00 | 0.00 | 0.00 | 25 | 1016.0 |
| 20260502215606 | 62 | 154 | 7.0 | 10.4 | 0.00 | 0.00 | 0.00 | 25 | 1016.0 |
| 20260502215409 | 62 | 154 | 7.0 | 10.4 | 0.00 | 0.00 | 0.00 | 25 | 1016.0 |
| 20260502215208 | 62 | 154 | 7.0 | 10.4 | 0.00 | 0.00 | 0.00 | 25 | 1016.0 |
| 20260502215006 | 62 | 153 | 7.8 | 10.4 | 0.00 | 0.00 | 0.00 | 24 | 1016.0 |
| 20260502214607 | 62 | 154 | 7.8 | 9.6 | 0.00 | 0.00 | 0.00 | 24 | 1016.0 |
| 20260502214407 | 62 | 154 | 7.8 | 9.6 | 0.00 | 0.00 | 0.00 | 24 | 1016.0 |
| 20260502214007 | 62 | 153 | 7.0 | 9.6 | 0.00 | 0.00 | 0.00 | 25 | 1016.0 |
| 20260502213806 | 62 | 153 | 7.0 | 9.6 | 0.00 | 0.00 | 0.00 | 25 | 1016.0 |
| 20260502213607 | 63 | 152 | 7.8 | 9.6 | 0.00 | 0.00 | 0.00 | 24 | 1016.0 |
| 20260502213407 | 63 | 152 | 7.0 | 9.6 | 0.00 | 0.00 | 0.00 | 24 | 1016.0 |
| 20260502213206 | 63 | 152 | 7.8 | 9.6 | 0.00 | 0.00 | 0.00 | 24 | 1016.0 |
| 20260502213007 | 63 | 152 | 7.8 | 9.6 | 0.00 | 0.00 | 0.00 | 25 | 1016.0 |
| 20260502212807 | 62 | 153 | 7.0 | 8.7 | 0.00 | 0.00 | 0.00 | 25 | 1016.0 |
| 20260502212406 | 62 | 153 | 7.0 | 8.7 | 0.00 | 0.00 | 0.00 | 25 | 1016.0 |
| 20260502212207 | 62 | 152 | 7.0 | 8.7 | 0.00 | 0.00 | 0.00 | 25 | 1016.0 |
| 20260502211807 | 62 | 151 | 7.0 | 8.7 | 0.00 | 0.00 | 0.00 | 25 | 1016.0 |
| 20260502211607 | 62 | 149 | 7.0 | 8.7 | 0.00 | 0.00 | 0.00 | 25 | 1016.0 |
| 20260502211406 | 62 | 149 | 7.0 | 8.7 | 0.00 | 0.00 | 0.00 | 25 | 1016.0 |
| 20260502211208 | 62 | 150 | 6.1 | 8.7 | 0.00 | 0.00 | 0.00 | 25 | 1016.0 |
| 20260502211007 | 62 | 148 | 7.0 | 8.7 | 0.00 | 0.00 | 0.00 | 25 | 1016.0 |
| 20260502210806 | 62 | 149 | 7.0 | 8.7 | 0.00 | 0.00 | 0.00 | 25 | 1016.0 |
| 20260502210606 | 62 | 150 | 7.8 | 8.7 | 0.00 | 0.00 | 0.00 | 25 | 1016.0 |
| 20260502210406 | 63 | 149 | 7.0 | 8.7 | 0.00 | 0.00 | 0.00 | 25 | 1016.0 |
| 20260502210007 | 63 | 150 | 6.1 | 8.7 | 0.00 | 0.00 | 0.00 | 24 | 1016.0 |
| 20260502205806 | 63 | 150 | 6.1 | 9.6 | 0.00 | 0.00 | 0.00 | 24 | 1016.0 |
| 20260502205607 | 63 | 150 | 7.0 | 9.6 | 0.00 | 0.00 | 0.00 | 24 | 1016.0 |
| 20260502205206 | 63 | 149 | 6.1 | 9.6 | 0.00 | 0.00 | 0.00 | 24 | 1016.0 |
| 20260502205007 | 64 | 149 | 7.8 | 9.6 | 0.00 | 0.00 | 0.00 | 24 | 1016.0 |
| 20260502204807 | 64 | 150 | 7.0 | 9.6 | 0.00 | 0.00 | 0.00 | 24 | 1016.0 |
| 20260502204608 | 64 | 150 | 7.8 | 9.6 | 0.00 | 0.00 | 0.00 | 24 | 1016.0 |
| 20260502204207 | 64 | 151 | 7.0 | 9.6 | 0.00 | 0.00 | 0.00 | 24 | 1016.0 |
| 20260502204006 | 64 | 151 | 7.8 | 9.6 | 0.00 | 0.00 | 0.00 | 24 | 1016.0 |
| 20260502203806 | 64 | 150 | 7.0 | 9.6 | 0.00 | 0.00 | 0.00 | 24 | 1016.0 |
| 20260502203607 | 64 | 148 | 7.0 | 9.6 | 0.00 | 0.00 | 0.00 | 24 | 1016.0 |
| 20260502203407 | 64 | 148 | 7.0 | 9.6 | 0.00 | 0.00 | 0.00 | 24 | 1016.0 |
| 20260502203206 | 64 | 149 | 7.0 | 9.6 | 0.00 | 0.00 | 0.00 | 24 | 1016.0 |
| 20260502203006 | 64 | 149 | 7.8 | 9.6 | 0.00 | 0.00 | 0.00 | 24 | 1016.0 |
| 20260502202809 | 64 | 150 | 6.1 | 9.6 | 0.00 | 0.00 | 0.00 | 24 | 1016.0 |
| 20260502202607 | 64 | 152 | 8.7 | 9.6 | 0.00 | 0.00 | 0.00 | 24 | 1016.0 |
| 20260502202407 | 64 | 152 | 7.0 | 9.6 | 0.00 | 0.00 | 0.00 | 24 | 1016.0 |
| 20260502202206 | 64 | 151 | 7.0 | 9.6 | 0.00 | 0.00 | 0.00 | 24 | 1016.0 |
| 20260502202007 | 64 | 151 | 7.8 | 8.7 | 0.00 | 0.00 | 0.00 | 24 | 1016.0 |
| 20260502201808 | 64 | 150 | 6.1 | 8.7 | 0.00 | 0.00 | 0.00 | 24 | 1016.0 |
| 20260502201407 | 64 | 150 | 7.0 | 7.8 | 0.00 | 0.00 | 0.00 | 24 | 1016.0 |
| 20260502201007 | 64 | 151 | 7.0 | 8.7 | 0.00 | 0.00 | 0.00 | 24 | 1016.0 |
| 20260502200808 | 64 | 152 | 7.0 | 8.7 | 0.00 | 0.00 | 0.00 | 24 | 1016.0 |
| 20260502200607 | 64 | 152 | 7.0 | 9.6 | 0.00 | 0.00 | 0.00 | 24 | 1016.0 |
| 20260502200406 | 64 | 152 | 7.0 | 9.6 | 0.00 | 0.00 | 0.00 | 24 | 1016.0 |
| 20260502200206 | 64 | 151 | 7.0 | 9.6 | 0.00 | 0.00 | 0.00 | 24 | 1016.0 |
| 20260502200007 | 64 | 151 | 6.1 | 9.6 | 0.00 | 0.00 | 0.00 | 24 | 1016.0 |
| 20260502195806 | 65 | 150 | 7.8 | 9.6 | 0.00 | 0.00 | 0.00 | 23 | 1016.0 |
| 20260502195406 | 65 | 149 | 7.0 | 9.6 | 0.00 | 0.00 | 0.00 | 23 | 1016.0 |
| 20260502195206 | 65 | 149 | 7.8 | 9.6 | 0.00 | 0.00 | 0.00 | 23 | 1016.0 |
| 20260502195007 | 65 | 148 | 8.7 | 9.6 | 0.00 | 0.00 | 0.00 | 23 | 1016.0 |
| 20260502194806 | 65 | 147 | 7.8 | 9.6 | 0.00 | 0.00 | 0.00 | 23 | 1016.0 |
| 20260502194608 | 65 | 147 | 7.0 | 9.6 | 0.00 | 0.00 | 0.00 | 23 | 1016.0 |
| 20260502194407 | 65 | 147 | 7.0 | 9.6 | 0.00 | 0.00 | 0.00 | 23 | 1016.0 |
| 20260502194206 | 65 | 147 | 7.8 | 9.6 | 0.00 | 0.00 | 0.00 | 23 | 1016.0 |
| 20260502193808 | 65 | 147 | 7.8 | 9.6 | 0.00 | 0.00 | 0.00 | 23 | 1016.0 |
| 20260502193406 | 65 | 146 | 7.8 | 9.6 | 0.00 | 0.00 | 0.00 | 23 | 1016.0 |
| 20260502193206 | 65 | 148 | 7.8 | 9.6 | 0.00 | 0.00 | 0.00 | 23 | 1016.0 |
| 20260502193007 | 65 | 147 | 8.7 | 9.6 | 0.00 | 0.00 | 0.00 | 22 | 1016.0 |
| 20260502192807 | 66 | 149 | 7.8 | 9.6 | 0.00 | 0.00 | 0.00 | 22 | 1016.0 |
| 20260502192608 | 66 | 150 | 7.8 | 9.6 | 0.00 | 0.00 | 0.00 | 22 | 1016.0 |
| 20260502192407 | 66 | 150 | 7.0 | 9.6 | 0.00 | 0.00 | 0.00 | 22 | 1016.0 |
| 20260502192007 | 66 | 150 | 7.0 | 9.6 | 0.00 | 0.00 | 0.00 | 22 | 1016.0 |
| 20260502191806 | 66 | 149 | 7.0 | 9.6 | 0.00 | 0.00 | 0.00 | 22 | 1016.0 |
| 20260502191606 | 66 | 148 | 7.8 | 8.7 | 0.00 | 0.00 | 0.00 | 22 | 1016.0 |
| 20260502191407 | 66 | 147 | 7.0 | 8.7 | 0.00 | 0.00 | 0.00 | 20 | 1016.0 |
| 20260502191206 | 66 | 147 | 6.1 | 8.7 | 0.00 | 0.00 | 0.00 | 20 | 1016.0 |
| 20260502191007 | 66 | 147 | 7.8 | 8.7 | 0.00 | 0.00 | 0.00 | 20 | 1016.0 |
| 20260502190807 | 66 | 147 | 7.0 | 8.7 | 0.00 | 0.00 | 0.00 | 20 | 1016.0 |
| 20260502190607 | 66 | 147 | 7.0 | 9.6 | 0.00 | 0.00 | 0.00 | 20 | 1016.0 |
| 20260502190206 | 67 | 146 | 7.0 | 9.6 | 0.00 | 0.00 | 0.00 | 20 | 1016.0 |
| 20260502190006 | 67 | 145 | 7.0 | 9.6 | 0.00 | 0.00 | 0.00 | 17 | 1016.0 |
| 20260502185806 | 67 | 145 | 7.0 | 9.6 | 0.00 | 0.00 | 0.00 | 17 | 1016.0 |
| 20260502185407 | 67 | 143 | 6.1 | 9.6 | 0.00 | 0.00 | 0.00 | 17 | 1016.0 |
| 20260502185206 | 67 | 141 | 7.0 | 9.6 | 0.00 | 0.00 | 0.00 | 17 | 1016.0 |
| 20260502185006 | 67 | 140 | 7.0 | 8.7 | 0.00 | 0.00 | 0.00 | 17 | 1016.0 |
| 20260502184807 | 67 | 138 | 7.0 | 8.7 | 0.00 | 0.00 | 0.00 | 17 | 1016.0 |
| 20260502184606 | 67 | 136 | 7.0 | 8.7 | 0.00 | 0.00 | 0.00 | 17 | 1016.0 |
| 20260502184407 | 67 | 135 | 6.1 | 8.7 | 0.00 | 0.00 | 0.00 | 17 | 1016.0 |
| 20260502184207 | 67 | 134 | 7.8 | 8.7 | 0.00 | 0.00 | 0.00 | 17 | 1016.0 |
| 20260502184007 | 67 | 134 | 7.0 | 8.7 | 0.00 | 0.00 | 0.00 | 17 | 1016.0 |
| 20260502183807 | 67 | 134 | 7.8 | 8.7 | 0.00 | 0.00 | 0.00 | 17 | 1016.0 |
| 20260502183606 | 68 | 133 | 7.0 | 8.7 | 0.00 | 0.00 | 0.00 | 17 | 1016.0 |
| 20260502183007 | 68 | 132 | 6.1 | 8.7 | 0.00 | 0.00 | 0.00 | 14 | 1016.0 |
| 20260502182806 | 68 | 131 | 7.0 | 8.7 | 0.00 | 0.00 | 0.00 | 14 | 1016.0 |
| 20260502182608 | 68 | 131 | 6.1 | 8.7 | 0.00 | 0.00 | 0.00 | 14 | 1016.0 |
| 20260502182207 | 68 | 130 | 7.0 | 7.8 | 0.00 | 0.00 | 0.00 | 14 | 1016.0 |
| 20260502182006 | 68 | 131 | 6.1 | 7.8 | 0.00 | 0.00 | 0.00 | 14 | 1016.0 |
| 20260502181807 | 68 | 131 | 6.1 | 7.8 | 0.00 | 0.00 | 0.00 | 14 | 1016.0 |
| 20260502181606 | 69 | 132 | 6.1 | 7.8 | 0.00 | 0.00 | 0.00 | 14 | 1016.0 |
| 20260502181207 | 69 | 133 | 6.1 | 7.8 | 0.00 | 0.00 | 0.00 | 14 | 1016.0 |
| 20260502181008 | 69 | 134 | 6.1 | 7.8 | 0.00 | 0.00 | 0.00 | 14 | 1016.0 |
| 20260502180807 | 69 | 135 | 7.0 | 7.8 | 0.00 | 0.00 | 0.00 | 14 | 1016.0 |
| 20260502180606 | 69 | 134 | 6.1 | 7.8 | 0.00 | 0.00 | 0.00 | 14 | 1016.0 |
| 20260502180206 | 70 | 135 | 6.1 | 7.8 | 0.00 | 0.00 | 0.00 | 14 | 1016.0 |
| 20260502170407 | 75 | 132 | 7.0 | 10.4 | 0.00 | 0.00 | 0.00 | 10 | 1016.0 |
| 20260502170207 | 75 | 131 | 7.0 | 10.4 | 0.00 | 0.00 | 0.00 | 10 | 1016.0 |
| 20260502164206 | 76 | 154 | 6.1 | 9.6 | 0.00 | 0.00 | 0.00 | 10 | 1016.0 |
| 20260502164007 | 76 | 151 | 6.1 | 8.7 | 0.00 | 0.00 | 0.00 | 10 | 1016.0 |
| 20260502163811 | 76 | 151 | 6.1 | 10.4 | 0.00 | 0.00 | 0.00 | 10 | 1016.0 |
| 20260502163606 | 77 | 147 | 6.1 | 10.4 | 0.00 | 0.00 | 0.00 | 10 | 1016.0 |
| 20260502163407 | 77 | 143 | 5.2 | 11.3 | 0.00 | 0.00 | 0.00 | 10 | 1016.0 |
| 20260502163006 | 75 | 146 | 7.8 | 11.3 | 0.00 | 0.00 | 0.00 | 10 | 1016.0 |
| 20260502162806 | 76 | 145 | 8.7 | 11.3 | 0.00 | 0.00 | 0.00 | 10 | 1017.0 |
| 20260502162607 | 75 | 146 | 9.6 | 11.3 | 0.00 | 0.00 | 0.00 | 10 | 1017.0 |
| 20260502162407 | 77 | 144 | 6.1 | 10.4 | 0.00 | 0.00 | 0.00 | 10 | 1017.0 |
| 20260502162207 | 77 | 140 | 7.0 | 10.4 | 0.00 | 0.00 | 0.00 | 10 | 1017.0 |
| 20260502162009 | 76 | 139 | 7.8 | 11.3 | 0.00 | 0.00 | 0.00 | 10 | 1017.0 |
| 20260502161807 | 75 | 141 | 7.8 | 13.0 | 0.00 | 0.00 | 0.00 | 10 | 1017.0 |
| 20260502161609 | 75 | 142 | 9.6 | 13.0 | 0.00 | 0.00 | 0.00 | 10 | 1017.0 |
| 20260502161407 | 76 | 145 | 7.0 | 13.0 | 0.00 | 0.00 | 0.00 | 10 | 1017.0 |
| 20260502161206 | 75 | 147 | 9.6 | 13.0 | 0.00 | 0.00 | 0.00 | 10 | 1017.0 |
| 20260502161007 | 75 | 149 | 9.6 | 13.0 | 0.00 | 0.00 | 0.00 | 10 | 1017.0 |
| 20260502160807 | 76 | 147 | 8.7 | 12.2 | 0.00 | 0.00 | 0.00 | 10 | 1017.0 |
| 20260502160606 | 76 | 145 | 7.8 | 12.2 | 0.00 | 0.00 | 0.00 | 10 | 1017.0 |
| 20260502160407 | 77 | 141 | 5.2 | 12.2 | 0.00 | 0.00 | 0.00 | 10 | 1017.0 |
| 20260502160208 | 76 | 141 | 10.4 | 12.2 | 0.00 | 0.00 | 0.00 | 10 | 1017.0 |
| 20260502152207 | 80 | 190 | 4.3 | 10.4 | 0.00 | 0.00 | 0.00 | 10 | 1017.0 |
| 20260502152007 | 78 | 183 | 7.0 | 10.4 | 0.00 | 0.00 | 0.00 | 10 | 1017.0 |
| 20260502151607 | 80 | 171 | 7.0 | 11.3 | 0.00 | 0.00 | 0.00 | 10 | 1017.0 |
| 20260502151410 | 79 | 162 | 5.2 | 11.3 | 0.00 | 0.00 | 0.00 | 10 | 1017.0 |
| 20260502151207 | 80 | 155 | 6.1 | 11.3 | 0.00 | 0.00 | 0.00 | 10 | 1017.0 |
| 20260502151007 | 80 | 145 | 5.2 | 11.3 | 0.00 | 0.00 | 0.00 | 10 | 1017.0 |
| 20260502150607 | 78 | 139 | 6.1 | 10.4 | 0.00 | 0.00 | 0.00 | 10 | 1017.0 |
| 20260502150407 | 78 | 139 | 6.1 | 9.6 | 0.00 | 0.00 | 0.00 | 10 | 1017.0 |
| 20260502150206 | 78 | 144 | 5.2 | 9.6 | 0.00 | 0.00 | 0.00 | 10 | 1017.0 |
| 20260502130408 | 85 | 183 | 0.0 | 7.0 | 0.00 | 0.00 | 0.00 | 10 | 1019.0 |
| 20260502130206 | 84 | 141 | 5.2 | 7.0 | 0.00 | 0.00 | 0.00 | 10 | 1019.0 |
| 20260502123606 | 79 | 153 | 8.7 | 11.3 | 0.00 | 0.00 | 0.00 | 10 | 1019.0 |
| 20260502123407 | 77 | 153 | 7.0 | 11.3 | 0.00 | 0.00 | 0.00 | 10 | 1019.0 |
| 20260502123207 | 79 | 155 | 7.0 | 11.3 | 0.00 | 0.00 | 0.00 | 10 | 1019.0 |
| 20260502123006 | 77 | 163 | 8.7 | 11.3 | 0.00 | 0.00 | 0.00 | 10 | 1019.0 |
| 20260502122806 | 80 | 165 | 2.6 | 11.3 | 0.00 | 0.00 | 0.00 | 10 | 1020.0 |
| 20260502122607 | 78 | 166 | 8.7 | 11.3 | 0.00 | 0.00 | 0.00 | 12 | 1020.0 |
| 20260502122007 | 80 | 169 | 6.1 | 11.3 | 0.00 | 0.00 | 0.00 | 10 | 1020.0 |
| 20260502121807 | 79 | 172 | 9.6 | 13.0 | 0.00 | 0.00 | 0.00 | 12 | 1020.0 |
| 20260502121607 | 80 | 171 | 5.2 | 17.4 | 0.00 | 0.00 | 0.00 | 10 | 1020.0 |
| 20260502121207 | 78 | 163 | 7.8 | 17.4 | 0.00 | 0.00 | 0.00 | 10 | 1020.0 |
| 20260502121007 | 76 | 160 | 8.7 | 17.4 | 0.00 | 0.00 | 0.00 | 10 | 1020.0 |
| 20260502120809 | 78 | 169 | 9.6 | 17.4 | 0.00 | 0.00 | 0.00 | 10 | 1020.0 |
| 20260502120608 | 81 | 185 | 5.2 | 10.4 | 0.00 | 0.00 | 0.00 | 10 | 1020.0 |
| 20260502120406 | 79 | 181 | 7.0 | 10.4 | 0.00 | 0.00 | 0.00 | 10 | 1020.0 |
| 20260502120207 | 78 | 185 | 3.5 | 12.2 | 0.00 | 0.00 | 0.00 | 12 | 1020.0 |
| 20260502115806 | 77 | 179 | 7.0 | 12.2 | 0.00 | 0.00 | 0.00 | 12 | 1020.0 |
| 20260502115607 | 78 | 174 | 7.0 | 12.2 | 0.00 | 0.00 | 0.00 | 12 | 1020.0 |
| 20260502115407 | 75 | 172 | 7.8 | 12.2 | 0.00 | 0.00 | 0.00 | 13 | 1020.0 |
| 20260502115208 | 76 | 164 | 7.8 | 11.3 | 0.00 | 0.00 | 0.00 | 12 | 1020.0 |
| 20260502115008 | 76 | 157 | 7.0 | 11.3 | 0.00 | 0.00 | 0.00 | 13 | 1020.0 |
| 20260502114807 | 76 | 155 | 9.6 | 11.3 | 0.00 | 0.00 | 0.00 | 10 | 1020.0 |
| 20260502114608 | 78 | 152 | 5.2 | 11.3 | 0.00 | 0.00 | 0.00 | 10 | 1020.0 |
| 20260502114407 | 79 | 176 | 5.2 | 8.7 | 0.00 | 0.00 | 0.00 | 10 | 1020.0 |
| 20260502114206 | 80 | 216 | 0.0 | 8.7 | 0.00 | 0.00 | 0.00 | 10 | 1020.0 |
| 20260502113807 | 80 | 239 | 5.2 | 11.3 | 0.00 | 0.00 | 0.00 | 11 | 1020.0 |
| 20260502113606 | 79 | 239 | 5.2 | 11.3 | 0.00 | 0.00 | 0.00 | 12 | 1020.0 |
| 20260502113407 | 79 | 225 | 4.3 | 11.3 | 0.00 | 0.00 | 0.00 | 10 | 1020.0 |
| 20260502113207 | 79 | 197 | 4.3 | 11.3 | 0.00 | 0.00 | 0.00 | 12 | 1020.0 |
| 20260502112806 | 80 | 162 | 5.2 | 10.4 | 0.00 | 0.00 | 0.00 | 10 | 1021.0 |
| 20260502112608 | 78 | 163 | 6.1 | 10.4 | 0.00 | 0.00 | 0.00 | 10 | 1021.0 |
| 20260502112407 | 78 | 177 | 7.8 | 10.4 | 0.00 | 0.00 | 0.00 | 10 | 1021.0 |
| 20260502112207 | 80 | 183 | 3.5 | 8.7 | 0.00 | 0.00 | 0.00 | 10 | 1021.0 |
| 20260502112006 | 77 | 183 | 6.1 | 9.6 | 0.00 | 0.00 | 0.00 | 10 | 1021.0 |
| 20260502111807 | 77 | 182 | 5.2 | 9.6 | 0.00 | 0.00 | 0.00 | 12 | 1021.0 |
| 20260502111407 | 79 | 188 | 5.2 | 9.6 | 0.00 | 0.00 | 0.00 | 10 | 1021.0 |
| 20260502111206 | 80 | 184 | 7.0 | 9.6 | 0.00 | 0.00 | 0.00 | 10 | 1021.0 |
| 20260502110607 | 81 | 165 | 3.5 | 9.6 | 0.00 | 0.00 | 0.00 | 11 | 1021.0 |
| 20260502110407 | 81 | 162 | 3.5 | 12.2 | 0.00 | 0.00 | 0.00 | 11 | 1021.0 |
| 20260502110206 | 79 | 169 | 3.5 | 12.2 | 0.00 | 0.00 | 0.00 | 12 | 1021.0 |
| 20260502105807 | 76 | 171 | 8.7 | 12.2 | 0.00 | 0.00 | 0.00 | 13 | 1021.0 |
| 20260502105607 | 75 | 166 | 10.4 | 12.2 | 0.00 | 0.00 | 0.00 | 13 | 1021.0 |
| 20260502105207 | 77 | 171 | 7.8 | 11.3 | 0.00 | 0.00 | 0.00 | 12 | 1021.0 |
| 20260502105007 | 79 | 186 | 7.8 | 10.4 | 0.00 | 0.00 | 0.00 | 12 | 1021.0 |
| 20260502104807 | 79 | 192 | 6.1 | 9.6 | 0.00 | 0.00 | 0.00 | 12 | 1021.0 |
| 20260502104607 | 80 | 210 | 4.3 | 8.7 | 0.00 | 0.00 | 0.00 | 14 | 1021.0 |
| 20260502104408 | 77 | 214 | 5.2 | 8.7 | 0.00 | 0.00 | 0.00 | 12 | 1021.0 |
| 20260502104210 | 79 | 209 | 4.3 | 8.7 | 0.00 | 0.00 | 0.00 | 12 | 1021.0 |
| 20260502103407 | 78 | 162 | 5.2 | 8.7 | 0.00 | 0.00 | 0.00 | 12 | 1021.0 |
| 20260502103220 | 79 | 158 | 5.2 | 9.6 | 0.00 | 0.00 | 0.00 | 12 | 1021.0 |
| 20260502102807 | 78 | 152 | 3.5 | 10.4 | 0.00 | 0.00 | 0.00 | 14 | 1021.0 |
| 20260502102607 | 77 | 154 | 5.2 | 10.4 | 0.00 | 0.00 | 0.00 | 15 | 1021.0 |
| 20260502102406 | 75 | 159 | 7.0 | 10.4 | 0.00 | 0.00 | 0.00 | 15 | 1021.0 |
| 20260502102207 | 75 | 149 | 8.7 | 10.4 | 0.00 | 0.00 | 0.00 | 15 | 1021.0 |
| 20260502102007 | 78 | 150 | 5.2 | 10.4 | 0.00 | 0.00 | 0.00 | 15 | 1021.0 |
| 20260502101407 | 76 | 146 | 6.1 | 12.2 | 0.00 | 0.00 | 0.00 | 15 | 1021.0 |
| 20260502101207 | 74 | 152 | 5.2 | 12.2 | 0.00 | 0.00 | 0.00 | 15 | 1021.0 |
| 20260502101007 | 73 | 153 | 7.8 | 12.2 | 0.00 | 0.00 | 0.00 | 15 | 1021.0 |
| 20260502100807 | 73 | 153 | 7.8 | 12.2 | 0.00 | 0.00 | 0.00 | 15 | 1021.0 |
| 20260502100207 | 73 | 178 | 8.7 | 12.2 | 0.00 | 0.00 | 0.00 | 18 | 1021.0 |
| 20260502091407 | 73 | 219 | 6.1 | 11.3 | 0.00 | 0.00 | 0.00 | 20 | 1022.0 |
| 20260502091207 | 73 | 221 | 4.3 | 9.6 | 0.00 | 0.00 | 0.00 | 18 | 1022.0 |
| 20260502091007 | 78 | 224 | 4.3 | 7.8 | 0.00 | 0.00 | 0.00 | 19 | 1022.0 |
| 20260502090807 | 77 | 222 | 6.1 | 7.8 | 0.00 | 0.00 | 0.00 | 20 | 1022.0 |
| 20260502090606 | 80 | 221 | 2.6 | 6.1 | 0.00 | 0.00 | 0.00 | 19 | 1022.0 |
| 20260502090407 | 77 | 208 | 3.5 | 7.8 | 0.00 | 0.00 | 0.00 | 17 | 1022.0 |
| 20260502090207 | 79 | 204 | 2.6 | 7.8 | 0.00 | 0.00 | 0.00 | 17 | 1022.0 |
| 20260502071407 | 71 | 181 | 5.2 | 6.1 | 0.00 | 0.00 | 0.00 | 23 | 1023.0 |
| 20260502071208 | 70 | 181 | 4.3 | 6.1 | 0.00 | 0.00 | 0.00 | 24 | 1023.0 |
| 20260502071007 | 71 | 178 | 2.6 | 6.1 | 0.00 | 0.00 | 0.00 | 23 | 1023.0 |
| 20260502070807 | 72 | 171 | 5.2 | 6.1 | 0.00 | 0.00 | 0.00 | 23 | 1023.0 |
| 20260502070608 | 71 | 168 | 3.5 | 6.1 | 0.00 | 0.00 | 0.00 | 23 | 1023.0 |
| 20260502070407 | 70 | 173 | 4.3 | 6.1 | 0.00 | 0.00 | 0.00 | 24 | 1023.0 |
| 20260502070207 | 70 | 171 | 3.5 | 6.1 | 0.00 | 0.00 | 0.00 | 24 | 1023.0 |
| 20260502070008 | 71 | 174 | 2.6 | 6.1 | 0.00 | 0.00 | 0.00 | 24 | 1023.0 |
| 20260502065807 | 70 | 177 | 3.5 | 6.1 | 0.00 | 0.00 | 0.00 | 25 | 1022.0 |
| 20260502065607 | 69 | 181 | 5.2 | 6.1 | 0.00 | 0.00 | 0.00 | 25 | 1022.0 |
| 20260502065407 | 68 | 177 | 5.2 | 6.1 | 0.00 | 0.00 | 0.00 | 25 | 1022.0 |
| 20260502065207 | 70 | 179 | 3.5 | 6.1 | 0.00 | 0.00 | 0.00 | 25 | 1022.0 |
| 20260502065007 | 70 | 177 | 5.2 | 6.1 | 0.00 | 0.00 | 0.00 | 25 | 1022.0 |
| 20260502064807 | 69 | 178 | 4.3 | 6.1 | 0.00 | 0.00 | 0.00 | 25 | 1022.0 |
| 20260502064607 | 71 | 177 | 3.5 | 6.1 | 0.00 | 0.00 | 0.00 | 25 | 1022.0 |
| 20260502064207 | 70 | 169 | 2.6 | 6.1 | 0.00 | 0.00 | 0.00 | 25 | 1023.0 |
| 20260502064006 | 69 | 167 | 3.5 | 6.1 | 0.00 | 0.00 | 0.00 | 25 | 1023.0 |
| 20260502063807 | 72 | 162 | 2.6 | 5.2 | 0.00 | 0.00 | 0.00 | 24 | 1023.0 |
| 20260502063607 | 72 | 158 | 3.5 | 5.2 | 0.00 | 0.00 | 0.00 | 25 | 1023.0 |
| 20260502063409 | 72 | 158 | 2.6 | 5.2 | 0.00 | 0.00 | 0.00 | 25 | 1023.0 |
| 20260502063207 | 71 | 159 | 3.5 | 5.2 | 0.00 | 0.00 | 0.00 | 25 | 1023.0 |
| 20260502063007 | 70 | 162 | 4.3 | 5.2 | 0.00 | 0.00 | 0.00 | 25 | 1023.0 |
| 20260502062807 | 72 | 163 | 3.5 | 5.2 | 0.00 | 0.00 | 0.00 | 25 | 1023.0 |
| 20260502062606 | 70 | 165 | 3.5 | 5.2 | 0.00 | 0.00 | 0.00 | 26 | 1023.0 |
| 20260502062407 | 69 | 166 | 3.5 | 5.2 | 0.00 | 0.00 | 0.00 | 25 | 1023.0 |
| 20260502062207 | 68 | 166 | 4.3 | 5.2 | 0.00 | 0.00 | 0.00 | 26 | 1023.0 |
| 20260502062007 | 69 | 164 | 4.3 | 5.2 | 0.00 | 0.00 | 0.00 | 26 | 1023.0 |
| 20260502061807 | 70 | 164 | 3.5 | 5.2 | 0.00 | 0.00 | 0.00 | 26 | 1023.0 |
| 20260502061407 | 68 | 167 | 4.3 | 6.1 | 0.00 | 0.00 | 0.00 | 26 | 1023.0 |
| 20260502061209 | 67 | 169 | 4.3 | 6.1 | 0.00 | 0.00 | 0.00 | 27 | 1023.0 |
| 20260502061007 | 67 | 169 | 4.3 | 6.1 | 0.00 | 0.00 | 0.00 | 26 | 1023.0 |
| 20260502060607 | 66 | 170 | 4.3 | 6.1 | 0.00 | 0.00 | 0.00 | 26 | 1023.0 |
| 20260502060406 | 67 | 172 | 4.3 | 6.1 | 0.00 | 0.00 | 0.00 | 26 | 1023.0 |
| 20260502060207 | 68 | 173 | 4.3 | 6.1 | 0.00 | 0.00 | 0.00 | 27 | 1023.0 |
| 20260502055806 | 66 | 174 | 3.5 | 6.1 | 0.00 | 0.00 | 0.00 | 27 | 1023.0 |
| 20260502055607 | 66 | 174 | 4.3 | 6.1 | 0.00 | 0.00 | 0.00 | 27 | 1023.0 |
| 20260502055407 | 66 | 174 | 4.3 | 6.1 | 0.00 | 0.00 | 0.00 | 27 | 1023.0 |
| 20260502055208 | 66 | 172 | 4.3 | 5.2 | 0.00 | 0.00 | 0.00 | 27 | 1023.0 |
| 20260502055007 | 66 | 172 | 3.5 | 5.2 | 0.00 | 0.00 | 0.00 | 27 | 1023.0 |
| 20260502054807 | 65 | 173 | 4.3 | 5.2 | 0.00 | 0.00 | 0.00 | 27 | 1023.0 |
| 20260502054607 | 66 | 172 | 3.5 | 5.2 | 0.00 | 0.00 | 0.00 | 28 | 1023.0 |
| 20260502054407 | 65 | 170 | 3.5 | 5.2 | 0.00 | 0.00 | 0.00 | 28 | 1023.0 |
| 20260502054206 | 65 | 169 | 3.5 | 5.2 | 0.00 | 0.00 | 0.00 | 28 | 1023.0 |
| 20260502053808 | 66 | 168 | 3.5 | 5.2 | 0.00 | 0.00 | 0.00 | 28 | 1023.0 |
| 20260502053607 | 66 | 168 | 4.3 | 5.2 | 0.00 | 0.00 | 0.00 | 28 | 1023.0 |
| 20260502053407 | 64 | 168 | 4.3 | 5.2 | 0.00 | 0.00 | 0.00 | 28 | 1023.0 |
| 20260502053207 | 64 | 168 | 4.3 | 5.2 | 0.00 | 0.00 | 0.00 | 28 | 1023.0 |
| 20260502053008 | 64 | 167 | 3.5 | 5.2 | 0.00 | 0.00 | 0.00 | 28 | 1023.0 |
| 20260502052806 | 64 | 166 | 3.5 | 5.2 | 0.00 | 0.00 | 0.00 | 29 | 1022.0 |
| 20260502052607 | 64 | 165 | 3.5 | 5.2 | 0.00 | 0.00 | 0.00 | 28 | 1022.0 |
| 20260502052407 | 64 | 163 | 4.3 | 6.1 | 0.00 | 0.00 | 0.00 | 28 | 1022.0 |
| 20260502051607 | 64 | 159 | 4.3 | 6.1 | 0.00 | 0.00 | 0.00 | 28 | 1022.0 |
| 20260502051407 | 64 | 159 | 4.3 | 5.2 | 0.00 | 0.00 | 0.00 | 28 | 1022.0 |
| 20260502051208 | 65 | 160 | 4.3 | 5.2 | 0.00 | 0.00 | 0.00 | 28 | 1022.0 |
| 20260502051007 | 64 | 163 | 4.3 | 5.2 | 0.00 | 0.00 | 0.00 | 28 | 1022.0 |
| 20260502050607 | 64 | 167 | 4.3 | 5.2 | 0.00 | 0.00 | 0.00 | 28 | 1022.0 |
| 20260502050408 | 63 | 170 | 4.3 | 6.1 | 0.00 | 0.00 | 0.00 | 29 | 1022.0 |
| 20260502050207 | 62 | 171 | 4.3 | 6.1 | 0.00 | 0.00 | 0.00 | 29 | 1022.0 |
| 20260502050007 | 62 | 171 | 3.5 | 6.1 | 0.00 | 0.00 | 0.00 | 29 | 1022.0 |
| 20260502045807 | 62 | 171 | 4.3 | 6.1 | 0.00 | 0.00 | 0.00 | 29 | 1022.0 |
| 20260502045607 | 62 | 170 | 5.2 | 6.1 | 0.00 | 0.00 | 0.00 | 29 | 1022.0 |
| 20260502045408 | 62 | 169 | 4.3 | 6.1 | 0.00 | 0.00 | 0.00 | 29 | 1022.0 |
| 20260502045207 | 62 | 168 | 5.2 | 6.1 | 0.00 | 0.00 | 0.00 | 29 | 1022.0 |
| 20260502045007 | 62 | 168 | 4.3 | 6.1 | 0.00 | 0.00 | 0.00 | 29 | 1022.0 |
| 20260502044808 | 62 | 169 | 4.3 | 6.1 | 0.00 | 0.00 | 0.00 | 29 | 1022.0 |
| 20260502044607 | 62 | 171 | 5.2 | 6.1 | 0.00 | 0.00 | 0.00 | 29 | 1022.0 |
| 20260502044208 | 61 | 170 | 5.2 | 6.1 | 0.00 | 0.00 | 0.00 | 30 | 1022.0 |
| 20260502044007 | 61 | 170 | 5.2 | 6.1 | 0.00 | 0.00 | 0.00 | 29 | 1022.0 |
| 20260502043807 | 61 | 169 | 5.2 | 6.1 | 0.00 | 0.00 | 0.00 | 30 | 1022.0 |
| 20260502043607 | 61 | 168 | 5.2 | 6.1 | 0.00 | 0.00 | 0.00 | 29 | 1022.0 |
| 20260502043007 | 61 | 171 | 5.2 | 6.1 | 0.00 | 0.00 | 0.00 | 30 | 1022.0 |
| 20260502042807 | 61 | 172 | 4.3 | 6.1 | 0.00 | 0.00 | 0.00 | 29 | 1022.0 |
| 20260502042407 | 61 | 172 | 5.2 | 5.2 | 0.00 | 0.00 | 0.00 | 29 | 1022.0 |
| 20260502042207 | 61 | 172 | 5.2 | 5.2 | 0.00 | 0.00 | 0.00 | 30 | 1022.0 |
| 20260502042007 | 61 | 172 | 5.2 | 5.2 | 0.00 | 0.00 | 0.00 | 29 | 1022.0 |
| 20260502041807 | 61 | 171 | 5.2 | 5.2 | 0.00 | 0.00 | 0.00 | 29 | 1022.0 |
| 20260502041607 | 61 | 171 | 5.2 | 5.2 | 0.00 | 0.00 | 0.00 | 30 | 1022.0 |
| 20260502041407 | 61 | 171 | 5.2 | 5.2 | 0.00 | 0.00 | 0.00 | 30 | 1022.0 |
| 20260502041207 | 61 | 171 | 4.3 | 5.2 | 0.00 | 0.00 | 0.00 | 30 | 1022.0 |
| 20260502041007 | 61 | 171 | 5.2 | 5.2 | 0.00 | 0.00 | 0.00 | 30 | 1022.0 |
| 20260502040607 | 60 | 170 | 5.2 | 5.2 | 0.00 | 0.00 | 0.00 | 30 | 1022.0 |
| 20260502040407 | 60 | 169 | 4.3 | 5.2 | 0.00 | 0.00 | 0.00 | 30 | 1022.0 |
| 20260502040207 | 60 | 168 | 5.2 | 5.2 | 0.00 | 0.00 | 0.00 | 30 | 1022.0 |
| 20260502040007 | 60 | 166 | 5.2 | 5.2 | 0.00 | 0.00 | 0.00 | 30 | 1022.0 |
| 20260502035807 | 60 | 165 | 4.3 | 5.2 | 0.00 | 0.00 | 0.00 | 30 | 1022.0 |
| 20260502035607 | 60 | 165 | 4.3 | 5.2 | 0.00 | 0.00 | 0.00 | 30 | 1022.0 |
| 20260502035407 | 60 | 167 | 4.3 | 4.3 | 0.00 | 0.00 | 0.00 | 30 | 1022.0 |
| 20260502035207 | 60 | 170 | 4.3 | 5.2 | 0.00 | 0.00 | 0.00 | 31 | 1022.0 |
| 20260502035007 | 60 | 173 | 4.3 | 5.2 | 0.00 | 0.00 | 0.00 | 31 | 1022.0 |
| 20260502034807 | 60 | 177 | 4.3 | 5.2 | 0.00 | 0.00 | 0.00 | 31 | 1022.0 |
| 20260502034609 | 60 | 179 | 3.5 | 5.2 | 0.00 | 0.00 | 0.00 | 31 | 1022.0 |
| 20260502034407 | 60 | 178 | 4.3 | 5.2 | 0.00 | 0.00 | 0.00 | 31 | 1022.0 |
| 20260502034207 | 59 | 178 | 3.5 | 4.3 | 0.00 | 0.00 | 0.00 | 31 | 1022.0 |
| 20260502034007 | 59 | 178 | 3.5 | 3.5 | 0.00 | 0.00 | 0.00 | 31 | 1022.0 |
| 20260502033808 | 59 | 178 | 3.5 | 3.5 | 0.00 | 0.00 | 0.00 | 31 | 1022.0 |
| 20260502033607 | 59 | 181 | 3.5 | 3.5 | 0.00 | 0.00 | 0.00 | 31 | 1022.0 |
| 20260502033407 | 59 | 184 | 3.5 | 3.5 | 0.00 | 0.00 | 0.00 | 31 | 1022.0 |
| 20260502033207 | 59 | 186 | 3.5 | 3.5 | 0.00 | 0.00 | 0.00 | 31 | 1022.0 |
| 20260502033007 | 59 | 187 | 3.5 | 3.5 | 0.00 | 0.00 | 0.00 | 31 | 1022.0 |
| 20260502032807 | 58 | 187 | 2.6 | 3.5 | 0.00 | 0.00 | 0.00 | 31 | 1023.0 |
| 20260502032608 | 59 | 186 | 3.5 | 4.3 | 0.00 | 0.00 | 0.00 | 31 | 1023.0 |
| 20260502032407 | 59 | 183 | 3.5 | 4.3 | 0.00 | 0.00 | 0.00 | 31 | 1023.0 |
| 20260502032207 | 59 | 178 | 3.5 | 4.3 | 0.00 | 0.00 | 0.00 | 31 | 1023.0 |
| 20260502031807 | 59 | 173 | 3.5 | 5.2 | 0.00 | 0.00 | 0.00 | 31 | 1023.0 |
| 20260502031607 | 58 | 173 | 2.6 | 5.2 | 0.00 | 0.00 | 0.00 | 31 | 1023.0 |
| 20260502031407 | 59 | 174 | 3.5 | 5.2 | 0.00 | 0.00 | 0.00 | 31 | 1023.0 |
| 20260502031007 | 59 | 177 | 4.3 | 6.1 | 0.00 | 0.00 | 0.00 | 31 | 1023.0 |
| 20260502030808 | 59 | 177 | 5.2 | 6.1 | 0.00 | 0.00 | 0.00 | 31 | 1023.0 |
| 20260502030607 | 59 | 177 | 5.2 | 6.1 | 0.00 | 0.00 | 0.00 | 31 | 1023.0 |
| 20260502030207 | 59 | 177 | 5.2 | 6.1 | 0.00 | 0.00 | 0.00 | 31 | 1023.0 |
| 20260502030008 | 59 | 175 | 5.2 | 6.1 | 0.00 | 0.00 | 0.00 | 31 | 1023.0 |
| 20260502025807 | 59 | 173 | 5.2 | 6.1 | 0.00 | 0.00 | 0.00 | 31 | 1023.0 |
| 20260502025607 | 59 | 171 | 6.1 | 6.1 | 0.00 | 0.00 | 0.00 | 31 | 1023.0 |
| 20260502025407 | 59 | 169 | 6.1 | 6.1 | 0.00 | 0.00 | 0.00 | 31 | 1023.0 |
| 20260502025207 | 59 | 169 | 5.2 | 6.1 | 0.00 | 0.00 | 0.00 | 31 | 1023.0 |
| 20260502025007 | 58 | 170 | 4.3 | 6.1 | 0.00 | 0.00 | 0.00 | 31 | 1023.0 |
| 20260502024808 | 59 | 172 | 4.3 | 6.1 | 0.00 | 0.00 | 0.00 | 31 | 1023.0 |
| 20260502024607 | 58 | 171 | 5.2 | 6.1 | 0.00 | 0.00 | 0.00 | 31 | 1023.0 |
| 20260502024407 | 58 | 169 | 5.2 | 6.1 | 0.00 | 0.00 | 0.00 | 32 | 1023.0 |
| 20260502024207 | 59 | 165 | 6.1 | 6.1 | 0.00 | 0.00 | 0.00 | 32 | 1023.0 |
| 20260502024008 | 59 | 160 | 5.2 | 6.1 | 0.00 | 0.00 | 0.00 | 32 | 1023.0 |
| 20260502023808 | 58 | 156 | 4.3 | 6.1 | 0.00 | 0.00 | 0.00 | 32 | 1023.0 |
| 20260502023607 | 58 | 154 | 5.2 | 5.2 | 0.00 | 0.00 | 0.00 | 32 | 1023.0 |
| 20260502023407 | 58 | 154 | 5.2 | 5.2 | 0.00 | 0.00 | 0.00 | 32 | 1023.0 |
| 20260502023208 | 58 | 156 | 4.3 | 5.2 | 0.00 | 0.00 | 0.00 | 32 | 1023.0 |
| 20260502023007 | 58 | 158 | 4.3 | 5.2 | 0.00 | 0.00 | 0.00 | 32 | 1023.0 |
| 20260502022807 | 58 | 159 | 5.2 | 5.2 | 0.00 | 0.00 | 0.00 | 32 | 1023.0 |
| 20260502022607 | 58 | 160 | 5.2 | 5.2 | 0.00 | 0.00 | 0.00 | 32 | 1023.0 |
| 20260502022407 | 58 | 160 | 4.3 | 5.2 | 0.00 | 0.00 | 0.00 | 32 | 1023.0 |
| 20260502022207 | 58 | 160 | 5.2 | 5.2 | 0.00 | 0.00 | 0.00 | 32 | 1023.0 |
| 20260502022007 | 58 | 158 | 5.2 | 5.2 | 0.00 | 0.00 | 0.00 | 32 | 1023.0 |
| 20260502021808 | 57 | 156 | 3.5 | 5.2 | 0.00 | 0.00 | 0.00 | 32 | 1023.0 |
| 20260502021607 | 57 | 156 | 3.5 | 3.5 | 0.00 | 0.00 | 0.00 | 32 | 1023.0 |
| 20260502020807 | 58 | 149 | 3.5 | 3.5 | 0.00 | 0.00 | 0.00 | 32 | 1023.0 |
| 20260502020607 | 58 | 148 | 2.6 | 3.5 | 0.00 | 0.00 | 0.00 | 32 | 1023.0 |
| 20260502020408 | 58 | 150 | 3.5 | 3.5 | 0.00 | 0.00 | 0.00 | 32 | 1023.0 |
| 20260502020207 | 58 | 156 | 2.6 | 3.5 | 0.00 | 0.00 | 0.00 | 32 | 1023.0 |
| 20260502015807 | 58 | 165 | 3.5 | 4.3 | 0.00 | 0.00 | 0.00 | 32 | 1023.0 |
| 20260502015607 | 58 | 165 | 3.5 | 4.3 | 0.00 | 0.00 | 0.00 | 32 | 1023.0 |
| 20260502015407 | 58 | 164 | 3.5 | 4.3 | 0.00 | 0.00 | 0.00 | 32 | 1023.0 |
| 20260502015207 | 58 | 162 | 3.5 | 4.3 | 0.00 | 0.00 | 0.00 | 32 | 1023.0 |
| 20260502015007 | 58 | 161 | 3.5 | 4.3 | 0.00 | 0.00 | 0.00 | 32 | 1023.0 |
| 20260502014807 | 58 | 161 | 3.5 | 4.3 | 0.00 | 0.00 | 0.00 | 32 | 1023.0 |
| 20260502014607 | 58 | 161 | 3.5 | 4.3 | 0.00 | 0.00 | 0.00 | 32 | 1023.0 |
| 20260502014407 | 58 | 163 | 4.3 | 4.3 | 0.00 | 0.00 | 0.00 | 32 | 1023.0 |
| 20260502014209 | 58 | 166 | 3.5 | 4.3 | 0.00 | 0.00 | 0.00 | 32 | 1023.0 |
| 20260502014008 | 58 | 167 | 3.5 | 4.3 | 0.00 | 0.00 | 0.00 | 32 | 1023.0 |
| 20260502013607 | 59 | 167 | 3.5 | 4.3 | 0.00 | 0.00 | 0.00 | 32 | 1023.0 |
| 20260502013407 | 59 | 164 | 3.5 | 4.3 | 0.00 | 0.00 | 0.00 | 32 | 1023.0 |
| 20260502013207 | 59 | 160 | 3.5 | 4.3 | 0.00 | 0.00 | 0.00 | 32 | 1023.0 |
| 20260502013007 | 58 | 154 | 3.5 | 4.3 | 0.00 | 0.00 | 0.00 | 32 | 1023.0 |
| 20260502012807 | 58 | 149 | 3.5 | 4.3 | 0.00 | 0.00 | 0.00 | 32 | 1023.0 |
| 20260502012207 | 58 | 150 | 3.5 | 3.5 | 0.00 | 0.00 | 0.00 | 32 | 1023.0 |
| 20260502012007 | 58 | 162 | 3.5 | 3.5 | 0.00 | 0.00 | 0.00 | 32 | 1023.0 |
| 20260502011807 | 58 | 176 | 3.5 | 4.3 | 0.00 | 0.00 | 0.00 | 32 | 1023.0 |
| 20260502011607 | 58 | 182 | 2.6 | 4.3 | 0.00 | 0.00 | 0.00 | 32 | 1023.0 |
| 20260502011207 | 59 | 185 | 3.5 | 4.3 | 0.00 | 0.00 | 0.00 | 32 | 1023.0 |
| 20260502011007 | 58 | 177 | 3.5 | 4.3 | 0.00 | 0.00 | 0.00 | 32 | 1023.0 |
| 20260502010808 | 58 | 166 | 3.5 | 4.3 | 0.00 | 0.00 | 0.00 | 32 | 1023.0 |
| 20260502010607 | 58 | 158 | 3.5 | 4.3 | 0.00 | 0.00 | 0.00 | 33 | 1023.0 |
| 20260502010407 | 58 | 153 | 3.5 | 4.3 | 0.00 | 0.00 | 0.00 | 33 | 1023.0 |
| 20260502010207 | 58 | 149 | 3.5 | 3.5 | 0.00 | 0.00 | 0.00 | 33 | 1023.0 |
| 20260502005807 | 58 | 150 | 3.5 | 3.5 | 0.00 | 0.00 | 0.00 | 33 | 1023.0 |
| 20260502005607 | 57 | 153 | 3.5 | 4.3 | 0.00 | 0.00 | 0.00 | 33 | 1023.0 |
| 20260502005407 | 57 | 153 | 3.5 | 4.3 | 0.00 | 0.00 | 0.00 | 33 | 1023.0 |
| 20260502005207 | 57 | 151 | 3.5 | 4.3 | 0.00 | 0.00 | 0.00 | 33 | 1023.0 |
| 20260502005007 | 57 | 145 | 3.5 | 4.3 | 0.00 | 0.00 | 0.00 | 33 | 1023.0 |
| 20260502004807 | 57 | 142 | 3.5 | 4.3 | 0.00 | 0.00 | 0.00 | 33 | 1023.0 |
| 20260502004608 | 57 | 141 | 3.5 | 4.3 | 0.00 | 0.00 | 0.00 | 33 | 1023.0 |
| 20260502004207 | 58 | 142 | 3.5 | 4.3 | 0.00 | 0.00 | 0.00 | 32 | 1023.0 |
| 20260502004008 | 57 | 146 | 3.5 | 3.5 | 0.00 | 0.00 | 0.00 | 33 | 1023.0 |
| 20260502003808 | 57 | 147 | 3.5 | 3.5 | 0.00 | 0.00 | 0.00 | 33 | 1023.0 |
| 20260502003607 | 57 | 145 | 3.5 | 3.5 | 0.00 | 0.00 | 0.00 | 32 | 1023.0 |
| 20260502003207 | 58 | 128 | 2.6 | 4.3 | 0.00 | 0.00 | 0.00 | 32 | 1023.0 |
| 20260502003007 | 58 | 120 | 3.5 | 4.3 | 0.00 | 0.00 | 0.00 | 32 | 1023.0 |
| 20260502002607 | 59 | 104 | 3.5 | 4.3 | 0.00 | 0.00 | 0.00 | 31 | 1023.0 |
| 20260502002207 | 58 | 104 | 3.5 | 4.3 | 0.00 | 0.00 | 0.00 | 31 | 1023.0 |
| 20260502001808 | 58 | 109 | 3.5 | 3.5 | 0.00 | 0.00 | 0.00 | 31 | 1023.0 |
| 20260502001407 | 58 | 105 | 3.5 | 6.1 | 0.00 | 0.00 | 0.00 | 31 | 1023.0 |
| 20260502001207 | 58 | 98 | 3.5 | 6.1 | 0.00 | 0.00 | 0.00 | 31 | 1023.0 |
| 20260502001007 | 59 | 90 | 2.6 | 6.1 | 0.00 | 0.00 | 0.00 | 31 | 1023.0 |
| 20260502000807 | 59 | 80 | 3.5 | 6.1 | 0.00 | 0.00 | 0.00 | 30 | 1023.0 |
| 20260502000609 | 60 | 71 | 4.3 | 6.1 | 0.00 | 0.00 | 0.00 | 30 | 1023.0 |
| 20260502000409 | 60 | 62 | 4.3 | 6.1 | 0.00 | 0.00 | 0.00 | 30 | 1023.0 |
| 20260502000207 | 60 | 53 | 4.3 | 6.1 | 0.00 | 0.00 | 0.00 | 30 | 1023.0 |
| 20260501235808 | 60 | 42 | 4.3 | 6.1 | 0.00 | 0.00 | 0.00 | 30 | 1023.0 |
| 20260501235607 | 60 | 39 | 5.2 | 6.1 | 0.00 | 0.00 | 0.00 | 30 | 1023.0 |
| 20260501235407 | 60 | 35 | 5.2 | 6.1 | 0.00 | 0.00 | 0.00 | 30 | 1023.0 |
| 20260501235207 | 60 | 33 | 5.2 | 6.1 | 0.00 | 0.00 | 0.00 | 30 | 1023.0 |
| 20260501235007 | 60 | 31 | 5.2 | 6.1 | 0.00 | 0.00 | 0.00 | 30 | 1023.0 |
| 20260501234807 | 60 | 29 | 5.2 | 7.0 | 0.00 | 0.00 | 0.00 | 30 | 1023.0 |
| 20260501234608 | 60 | 27 | 5.2 | 7.0 | 0.00 | 0.00 | 0.00 | 30 | 1023.0 |
| 20260501234407 | 61 | 25 | 6.1 | 7.0 | 0.00 | 0.00 | 0.00 | 30 | 1023.0 |
| 20260501234207 | 61 | 24 | 6.1 | 7.0 | 0.00 | 0.00 | 0.00 | 30 | 1023.0 |
| 20260501234007 | 61 | 22 | 6.1 | 7.0 | 0.00 | 0.00 | 0.00 | 30 | 1023.0 |
| 20260501233807 | 61 | 20 | 5.2 | 6.1 | 0.00 | 0.00 | 0.00 | 30 | 1023.0 |
| 20260501233607 | 61 | 19 | 5.2 | 6.1 | 0.00 | 0.00 | 0.00 | 30 | 1023.0 |
| 20260501233407 | 61 | 18 | 5.2 | 6.1 | 0.00 | 0.00 | 0.00 | 30 | 1023.0 |
| 20260501233207 | 61 | 17 | 5.2 | 6.1 | 0.00 | 0.00 | 0.00 | 30 | 1023.0 |
| 20260501233007 | 60 | 17 | 5.2 | 6.1 | 0.00 | 0.00 | 0.00 | 30 | 1023.0 |
| 20260501232807 | 60 | 15 | 5.2 | 7.0 | 0.00 | 0.00 | 0.00 | 30 | 1023.0 |
| 20260501232607 | 60 | 13 | 5.2 | 7.0 | 0.00 | 0.00 | 0.00 | 30 | 1023.0 |